Location: Ciserano
(45.5833°N, 9.6000°E)
Time: 05:05:49
(UTC+00:00)

Gbstr 26 Del rocket - Pass Details

Date: 29 November 2020
Orbit: 493 x 1263 km, 51.8° (Epoch: 24 January)

Event Time Altitude Azimuth Distance (km) Brightness Sun altitude
Exits shadow 04:43:24 63° 280° (W) 558 2.5 -19.7°
Maximum altitude 04:43:55 80° 211° (SSW) 512 2.5 -19.6°
Drops below altitude 10° 04:47:49 10° 125° (SE) 1,771 6.4 -19.0°
Sets 04:50:08 0° 124° (SE) 2,730 7.6 -18.6°
